Location: Bazugues
(43.4465°N, 0.3432°E)
Time: 11:20:34
(UTC+00:00)

CZ-2D R/B - Pass Details

Date: 12 January 2026
Orbit: 525 x 595 km, 98.0° (Epoch: 11 February)

Event Time Altitude Azimuth Distance (km) Brightness Sun altitude
Rises 18:36:08 0° 174° (S) 2,691 6.9 -19.8°
Reaches altitude 10° 18:38:17 10° 177° (S) 1,794 6.0 -20.1°
Maximum altitude 18:42:06 61° 259° (WSW) 610 3.7 -20.8°
Drops below altitude 10° 18:45:55 10° 340° (NNW) 1,783 6.0 -21.5°
Sets 18:48:02 0° 344° (NNW) 2,674 6.9 -21.9°
